When you browse on this site, cookies collect data to enhance your experience and personalize the content and advertising you see.
Visit our Privacy Policy to learn more. By continuing to use the site, you agree to this use of cookies and data.
  • In Austria
  • List of Countries
  • For 7 days
  • Water Temperature
  • Weather Map
  • News
  • Weather Widgets
  • user-avatar
    Login

    Hourly Weather Zastavche

    Today, 15 December, Sunday

    Time Temperature Precipitation Wind Pressure Humidity
    00:00 +4°C° 0.2 mm 4 mps 728 mmHg 85%
    01:00 +3°C° 0.2 mm 5 mps 729 mmHg 82%
    02:00 +4°C° 0 mm 4 mps 729 mmHg 83%
    03:00 +3°C° 0 mm 4 mps 730 mmHg 82%
    04:00 +1°C° 0 mm 4 mps 730 mmHg 81%
    05:00 +2°C° 0 mm 3 mps 731 mmHg 80%
    06:00 +1°C° 0 mm 4 mps 731 mmHg 79%
    07:00 +1°C° 0 mm 4 mps 732 mmHg 78%
    08:00 +2°C° 0 mm 3 mps 732 mmHg 79%
    09:00 +3°C° 0 mm 4 mps 733 mmHg 75%
    10:00 +3°C° 0 mm 5 mps 733 mmHg 71%
    11:00 +6°C° 0 mm 5 mps 733 mmHg 67%
    12:00 +6°C° 0 mm 5 mps 734 mmHg 64%
    13:00 +7°C° 0 mm 5 mps 734 mmHg 61%
    14:00 +8°C° 0 mm 5 mps 734 mmHg 58%
    15:00 +7°C° 0 mm 4 mps 735 mmHg 60%
    16:00 +6°C° 0 mm 4 mps 735 mmHg 62%
    17:00 +5°C° 0 mm 3 mps 735 mmHg 63%
    18:00 +5°C° 0 mm 3 mps 735 mmHg 63%
    19:00 +5°C° 0 mm 3 mps 735 mmHg 62%
    20:00 +5°C° 0 mm 4 mps 735 mmHg 61%
    21:00 +5°C° 0 mm 3 mps 735 mmHg 60%
    22:00 +5°C° 0 mm 3 mps 736 mmHg 60%
    23:00 +6°C° 0 mm 2 mps 736 mmHg 59%

    Tomorrow, 16 December, Monday

    Time Temperature Precipitation Wind Pressure Humidity
    00:00 +6°C° 0 mm 2 mps 736 mmHg 60%
    01:00 +6°C° 0 mm 2 mps 737 mmHg 61%
    02:00 +6°C° 0 mm 2 mps 737 mmHg 62%
    03:00 +6°C° 0 mm 2 mps 737 mmHg 64%
    04:00 +6°C° 0 mm 2 mps 737 mmHg 66%
    05:00 +6°C° 0 mm 2 mps 738 mmHg 68%
    06:00 +5°C° 0 mm 2 mps 738 mmHg 69%
    07:00 +5°C° 0 mm 2 mps 738 mmHg 71%
    08:00 +5°C° 0 mm 2 mps 739 mmHg 72%
    09:00 +6°C° 0 mm 2 mps 739 mmHg 70%
    10:00 +7°C° 0 mm 2 mps 739 mmHg 68%
    11:00 +7°C° 0 mm 2 mps 740 mmHg 66%
    12:00 +8°C° 0 mm 2 mps 740 mmHg 66%
    13:00 +10°C° 0 mm 1 mps 739 mmHg 65%
    14:00 +10°C° 0 mm 1 mps 739 mmHg 64%
    15:00 +10°C° 0 mm 1 mps 739 mmHg 67%
    16:00 +9°C° 0 mm 1 mps 739 mmHg 71%
    17:00 +8°C° 0 mm 1 mps 739 mmHg 74%
    18:00 +8°C° 0 mm 1 mps 739 mmHg 76%
    19:00 +7°C° 0 mm 2 mps 739 mmHg 77%
    20:00 +6°C° 0 mm 2 mps 739 mmHg 79%
    21:00 +6°C° 0 mm 2 mps 739 mmHg 81%
    22:00 +6°C° 0 mm 2 mps 739 mmHg 82%
    23:00 +6°C° 0 mm 2 mps 739 mmHg 84%

    Day after tomorrow, 17 December, Tuesday

    Time Temperature Precipitation Wind Pressure Humidity
    00:00 +5°C° 0 mm 3 mps 739 mmHg 84%
    01:00 +5°C° 0 mm 3 mps 739 mmHg 84%
    02:00 +4°C° 0 mm 3 mps 739 mmHg 84%
    03:00 +4°C° 0 mm 3 mps 738 mmHg 84%
    04:00 +4°C° 0 mm 3 mps 738 mmHg 84%
    05:00 +4°C° 0 mm 3 mps 738 mmHg 83%
    06:00 +4°C° 0 mm 3 mps 738 mmHg 83%
    07:00 +4°C° 0 mm 3 mps 738 mmHg 83%
    08:00 +5°C° 0 mm 2 mps 738 mmHg 83%
    09:00 +6°C° 0 mm 2 mps 738 mmHg 78%
    10:00 +7°C° 0 mm 2 mps 738 mmHg 73%
    11:00 +8°C° 0 mm 2 mps 738 mmHg 68%
    12:00 +9°C° 0 mm 2 mps 738 mmHg 65%
    13:00 +10°C° 0 mm 2 mps 737 mmHg 63%
    14:00 +12°C° 0 mm 2 mps 737 mmHg 60%
    15:00 +10°C° 0 mm 2 mps 737 mmHg 62%
    16:00 +9°C° 0 mm 3 mps 737 mmHg 64%
    17:00 +8°C° 0 mm 3 mps 737 mmHg 66%
    18:00 +8°C° 0 mm 3 mps 737 mmHg 67%
    19:00 +8°C° 0 mm 2 mps 737 mmHg 67%
    20:00 +8°C° 0 mm 2 mps 737 mmHg 67%
    21:00 +8°C° 0 mm 2 mps 737 mmHg 67%
    22:00 +8°C° 0 mm 2 mps 737 mmHg 66%
    23:00 +7°C° 0 mm 2 mps 737 mmHg 65%

    18 December, Wednesday

    Time Temperature Precipitation Wind Pressure Humidity
    00:00 +8°C° 0 mm 2 mps 737 mmHg 64%
    01:00 +8°C° 0 mm 2 mps 737 mmHg 63%
    02:00 +8°C° 0 mm 2 mps 738 mmHg 62%
    03:00 +7°C° 0 mm 2 mps 738 mmHg 62%
    04:00 +7°C° 0 mm 2 mps 738 mmHg 62%
    05:00 +7°C° 0 mm 2 mps 738 mmHg 62%
    06:00 +7°C° 0 mm 2 mps 738 mmHg 62%
    07:00 +7°C° 0 mm 2 mps 738 mmHg 62%
    08:00 +7°C° 0 mm 3 mps 738 mmHg 62%
    09:00 +8°C° 0 mm 2 mps 738 mmHg 59%
    10:00 +9°C° 0 mm 2 mps 738 mmHg 57%
    11:00 +10°C° 0 mm 2 mps 738 mmHg 54%
    12:00 +12°C° 0 mm 2 mps 738 mmHg 52%
    13:00 +13°C° 0 mm 1 mps 738 mmHg 51%
    14:00 +14°C° 0 mm 1 mps 738 mmHg 50%
    15:00 +13°C° 0 mm 1 mps 738 mmHg 51%
    16:00 +12°C° 0 mm 1 mps 738 mmHg 52%
    17:00 +10°C° 0 mm 0 mps 738 mmHg 54%
    18:00 +11°C° 0 mm 1 mps 738 mmHg 55%
    19:00 +10°C° 0 mm 1 mps 738 mmHg 56%
    20:00 +10°C° 0 mm 1 mps 738 mmHg 57%
    21:00 +9°C° 0 mm 1 mps 738 mmHg 59%
    22:00 +9°C° 0 mm 1 mps 738 mmHg 61%
    23:00 +8°C° 0 mm 1 mps 738 mmHg 63%

    19 December, Thursday

    Time Temperature Precipitation Wind Pressure Humidity
    00:00 +8°C° 0 mm 1 mps 738 mmHg 64%
    01:00 +8°C° 0 mm 1 mps 738 mmHg 65%
    02:00 +7°C° 0 mm 1 mps 738 mmHg 65%
    03:00 +7°C° 0 mm 1 mps 738 mmHg 65%
    04:00 +7°C° 0 mm 1 mps 738 mmHg 65%
    05:00 +7°C° 0 mm 1 mps 738 mmHg 65%
    06:00 +7°C° 0 mm 1 mps 737 mmHg 65%
    07:00 +7°C° 0 mm 1 mps 737 mmHg 65%
    08:00 +7°C° 0 mm 1 mps 737 mmHg 66%
    09:00 +8°C° 0 mm 1 mps 737 mmHg 63%
    10:00 +9°C° 0 mm 1 mps 737 mmHg 60%
    11:00 +8°C° 0 mm 2 mps 737 mmHg 58%
    12:00 +9°C° 0 mm 2 mps 737 mmHg 56%
    13:00 +9°C° 0 mm 2 mps 736 mmHg 54%
    14:00 +10°C° 0 mm 2 mps 736 mmHg 52%
    15:00 +9°C° 0 mm 2 mps 736 mmHg 52%
    16:00 +9°C° 0 mm 2 mps 736 mmHg 52%
    17:00 +8°C° 0 mm 2 mps 735 mmHg 53%
    18:00 +8°C° 0 mm 2 mps 735 mmHg 53%
    19:00 +8°C° 0 mm 2 mps 735 mmHg 53%
    20:00 +8°C° 0 mm 2 mps 735 mmHg 54%
    21:00 +8°C° 0 mm 2 mps 735 mmHg 54%
    22:00 +8°C° 0 mm 2 mps 735 mmHg 54%
    23:00 +9°C° 0 mm 1 mps 734 mmHg 54%

    20 December, Friday

    Time Temperature Precipitation Wind Pressure Humidity
    00:00 +8°C° 0 mm 1 mps 734 mmHg 55%
    01:00 +8°C° 0 mm 1 mps 734 mmHg 56%
    02:00 +8°C° 0 mm 1 mps 733 mmHg 56%
    03:00 +8°C° 0 mm 1 mps 733 mmHg 58%
    04:00 +8°C° 0 mm 1 mps 733 mmHg 59%
    05:00 +8°C° 0 mm 1 mps 733 mmHg 61%
    06:00 +8°C° 0 mm 1 mps 733 mmHg 64%
    07:00 +7°C° 0 mm 2 mps 732 mmHg 67%
    08:00 +7°C° 0 mm 2 mps 732 mmHg 70%
    09:00 +8°C° 0 mm 2 mps 732 mmHg 69%
    10:00 +8°C° 0 mm 2 mps 732 mmHg 69%
    11:00 +10°C° 0 mm 1 mps 732 mmHg 68%
    12:00 +9°C° 0 mm 2 mps 732 mmHg 67%
    13:00 +9°C° 0 mm 2 mps 731 mmHg 65%
    14:00 +10°C° 0 mm 2 mps 731 mmHg 63%
    15:00 +9°C° 0 mm 2 mps 731 mmHg 65%
    16:00 +8°C° 0 mm 2 mps 731 mmHg 67%
    17:00 +8°C° 0 mm 2 mps 730 mmHg 70%
    18:00 +7°C° 0 mm 2 mps 730 mmHg 70%
    19:00 +7°C° 0 mm 2 mps 730 mmHg 71%
    20:00 +7°C° 0 mm 3 mps 730 mmHg 72%
    21:00 +7°C° 0.1 mm 3 mps 730 mmHg 73%
    22:00 +7°C° 0.1 mm 3 mps 730 mmHg 74%
    23:00 +7°C° 0.1 mm 3 mps 729 mmHg 76%
    Show more